Fort Eustis, VA

2:34 PM EDT on October 22, 2017 (GMT -0400)
Felker Army Air Field

Weather History for KFAF - May, 2013

Change the Weather History Date:

Monday, May 13, 2013

  Actual Average Record
Temperature  
Mean Temperature 57 °F -  
Max Temperature 64 °F 75 °F 90 °F (2014)
Min Temperature 50 °F 57 °F 49 °F (2007)
Degree Days  
Heating Degree Days 8    
Growing Degree Days 7 (Base 50)    
Moisture  
Dew Point 35 °F    
Average Humidity 45    
Maximum Humidity 66    
Minimum Humidity 32    
Precipitation  
Precipitation 0.00 in - - ()
Sea Level Pressure  
Sea Level Pressure 30.09 in    
Wind  
Wind Speed 5 mph (North)    
Max Wind Speed 14 mph    
Max Gust Speed 22 mph    
Visibility 10 miles    
Events      
Averages and records for this station are not official NWS values.
T = Trace of Precipitation, MM = Missing Value Source: NWS Daily Summary

Daily Weather History Graph

Daily Weather History Graph

Search for Another Location

Airport or City:

Trip Planner

Search our weather history database for the weather conditions in past years. The results will help you decide how hot, cold, wet, or windy it might be!

Date:

Astronomy

May. 13, 2013 Rise Set
Actual Time 5:59 AM EDT 8:06 PM EDT
Civil Twilight 5:30 AM EDT 8:35 PM EDT
Nautical Twilight 4:55 AM EDT 9:10 PM EDT
Astronomical Twilight 4:17 AM EDT 9:49 PM EDT
Moon 8:44 AM EDT (5/13) 11:14 PM EDT (5/13)
Length of Visible Light 15h 04m
Length of Day
14h 06m
Waxing Crescent, 12% of the Moon is Illuminated
May 13
Waxing Crescent
May 18
First Quarter
May 25
Full
May 31
Last Quarter
Jun 8
New

Hourly Weather History & Observations

Time (EDT) Temp. Dew Point Humidity Pressure Visibility Wind Dir Wind Speed Gust Speed Precip Events Conditions
12:58 AM 56.7 °F 38.1 °F 50% 30.05 in 10.0 mi NE 3.5 mph - N/A   Mostly Cloudy
1:58 AM 57.0 °F 34.3 °F 42% 30.05 in 10.0 mi North 5.8 mph - N/A   Overcast
2:58 AM 54.5 °F 36.3 °F 50% 30.06 in 10.0 mi NE 3.5 mph - N/A   Scattered Clouds
3:58 AM 52.5 °F 36.9 °F 55% 30.07 in 10.0 mi NNE 2.3 mph - N/A   Scattered Clouds
4:07 AM 51.8 °F 35.6 °F 54% 30.06 in 10.0 mi NE 2.3 mph - N/A   Light Drizzle
4:58 AM 51.8 °F 34.5 °F 52% 30.07 in 10.0 mi Variable 3.5 mph - N/A   Partly Cloudy
5:05 AM 51.8 °F 35.6 °F 54% 30.06 in 10.0 mi NNE 3.5 mph - N/A   Partly Cloudy
5:58 AM 50.0 °F 39.0 °F 66% 30.09 in 10.0 mi Calm Calm - 0.00 in   Scattered Clouds
6:44 AM 51.8 °F 37.4 °F 58% 30.09 in 10.0 mi NNE 4.6 mph - N/A   Scattered Clouds
6:58 AM 52.0 °F 37.8 °F 58% 30.11 in 10.0 mi NE 3.5 mph - N/A   Scattered Clouds
7:02 AM 51.8 °F 37.4 °F 58% 30.10 in 10.0 mi NNE 2.3 mph - N/A   Scattered Clouds
7:58 AM 54.5 °F 38.1 °F 54% 30.12 in 10.0 mi NNE 3.5 mph - N/A   Mostly Cloudy
8:58 AM 57.2 °F 34.3 °F 42% 30.13 in 10.0 mi Variable 3.5 mph - N/A   Mostly Cloudy
9:58 AM 58.8 °F 29.1 °F 32% 30.13 in 10.0 mi NNW 5.8 mph - N/A   Mostly Cloudy
10:58 AM 59.5 °F 31.5 °F 35% 30.13 in 10.0 mi Variable 3.5 mph - 0.00 in   Partly Cloudy
11:58 AM 60.8 °F 34.0 °F 37% 30.12 in 10.0 mi Variable 6.9 mph - N/A   Mostly Cloudy
12:58 PM 61.5 °F 34.7 °F 37% 30.10 in 10.0 mi NW 13.8 mph 17.3 mph N/A   Scattered Clouds
1:58 PM 62.6 °F 36.1 °F 37% 30.08 in 10.0 mi NW 11.5 mph - N/A   Mostly Cloudy
2:58 PM 64.8 °F 36.9 °F 36% 30.06 in 10.0 mi WNW 13.8 mph 21.9 mph N/A   Scattered Clouds
4:58 PM 63.5 °F 34.3 °F 34% 30.03 in 10.0 mi NW 12.7 mph - N/A   Clear
5:58 PM 62.1 °F 33.1 °F 34% 30.03 in 10.0 mi NNW 13.8 mph - N/A   Partly Cloudy
6:58 PM 60.1 °F 33.1 °F 36% 30.04 in 10.0 mi Variable 6.9 mph - N/A   Partly Cloudy
7:58 PM 58.5 °F 32.4 °F 37% 30.07 in 10.0 mi NW 12.7 mph 17.3 mph N/A   Overcast
8:58 PM 57.6 °F 32.7 °F 39% 30.10 in 10.0 mi North 6.9 mph - N/A   Scattered Clouds
9:58 PM 57.2 °F 30.9 °F 37% 30.13 in 10.0 mi NNW 8.1 mph - N/A   Partly Cloudy
10:58 PM 55.9 °F 34.0 °F 44% 30.15 in 10.0 mi North 5.8 mph - N/A   Clear
11:58 PM 54.7 °F 34.0 °F 46% 30.16 in 10.0 mi North 5.8 mph - N/A   Clear